RH
27 24 18 14 15 14 13 14 13 12 10 10 9 9 8 7 6 5 5 6 4 4 3 2 2 2 2 3 6 13 17 4 3 10 7 4 5 30 38 31 31 26 25 22 18
28 25 19 16 16 15 14 12 13 13 12 12 12 11 10 9 7 7 7 6 5 5 4 4 3 3 3 4 23 70 47 4 13 25 29 19 8 31 39 26 24 25 25 22 20
29 26 24 20 18 16 13 12 13 14 14 14 13 12 12 10 8 8 6 5 7 8 8 8 8 4 9 14 24 83 35 23 40 27 44 19 20 16 33 34 25 23 23 22 21
30 29 27 26 23 17 14 13 14 16 16 15 14 14 10 6 6 6 6 8 12 15 16 17 18 17 12 21 41 100 37 86 72 55 56 53 50 38 51 42 29 26 25 23 22
31 30 30 29 25 20 15 15 16 18 16 17 16 12 7 5 6 10 12 17 29 33 38 34 36 39 29 57 59 83 63 100 100 100 66 47 50 58 53 48 36 31 26 25 28
33 32 32 31 29 25 22 21 20 18 18 17 12 7 5 6 13 18 24 37 32 33 35 38 45 60 61 33 78 96 84 74 72 76 70 44 39 66 56 52 41 39 32 30 26
34 34 33 34 34 33 29 27 20 21 18 13 8 5 8 19 23 24 34 30 31 34 33 41 71 98 84 63 52 39 87 87 91 92 84 57 60 58 57 56 47 42 39 32 29
38 38 37 38 38 38 35 24 24 19 14 8 6 12 20 21 26 38 38 26 40 53 62 77 92 99 95 91 75 72 81 76 60 64 86 86 72 59 60 60 55 49 42 40 38
42 43 41 42 41 41 31 28 22 14 10 6 14 16 24 19 30 37 38 45 49 62 71 79 91 88 97 96 96 85 70 73 56 49 79 98 73 58 62 64 60 60 50 42 41
47 46 47 46 44 41 32 28 17 11 7 11 21 19 29 21 37 55 50 52 64 66 74 85 97 94 95 98 94 86 87 59 84 68 67 86 75 61 62 60 63 63 54 40 39
51 51 51 50 48 37 36 25 16 11 10 28 28 23 30 25 54 52 51 57 60 72 81 82 93 86 79 83 94 97 85 90 93 73 67 74 77 61 52 53 57 65 56 38 22
56 56 56 52 48 37 31 22 9 8 18 36 19 26 42 52 53 57 66 63 66 78 89 90 91 88 93 90 91 97 87 79 89 93 95 88 87 62 56 50 53 57 62 49 41
61 58 56 53 44 38 28 15 6 5 31 33 23 37 61 54 56 73 65 61 68 71 88 92 91 93 83 93 97 96 86 74 90 86 82 85 70 58 55 51 61 69 63 56 51
64 63 58 56 41 38 22 10 4 10 49 29 28 54 63 45 56 78 62 65 83 73 68 72 87 97 93 79 98 98 76 78 91 95 87 70 70 59 51 58 72 72 80 76 76
69 68 61 57 49 30 20 8 5 17 47 28 42 60 58 60 70 68 67 58 72 81 88 91 77 75 94 85 87 92 90 78 87 96 88 72 66 61 57 57 66 80 79 81 78
72 71 66 57 42 28 12 6 9 11 45 21 47 43 37 58 64 54 70 60 64 74 86 95 87 89 99 94 85 80 87 97 99 75 98 92 74 70 60 59 62 70 77 76 80
71 72 65 58 42 22 11 6 10 11 22 36 45 56 54 60 62 59 66 69 93 78 79 75 76 82 98 89 92 95 94 96 95 97 92 96 82 83 74 64 64 65 64 66 70
73 71 68 56 37 16 9 6 9 36 26 50 58 52 56 60 64 68 57 67 91 96 97 93 78 80 96 99 95 94 93 91 94 95 95 88 86 86 81 78 72 71 69 68 69
76 72 66 50 34 15 9 6 15 32 51 62 57 53 49 54 81 72 65 63 87 98 99 97 89 90 79 88 90 87 82 75 86 94 93 94 84 85 85 80 81 82 81 81 81
79 73 65 53 27 14 8 11 22 35 49 72 78 70 75 63 64 67 63 64 67 93 99 98 95 92 75 78 78 81 79 63 70 93 99 95 87 82 78 79 79 89 98 97 92
80 75 60 50 27 13 9 14 24 32 51 67 78 72 69 78 71 82 79 73 63 69 97 97 100 79 87 92 94 85 81 76 65 77 96 97 98 83 73 75 75 81 94 92 95
84 74 68 42 25 14 12 16 29 39 54 65 70 67 64 67 69 92 78 82 68 79 84 94 98 92 90 100 98 90 90 80 72 78 77 82 84 74 64 68 68 75 82 100 100
90 82 60 50 21 16 14 19 30 46 54 58 63 64 64 66 77 77 67 76 69 72 79 96 91 91 79 81 92 96 99 93 73 72 86 84 81 86 68 66 61 70 80 79 85
93 81 68 48 27 18 16 21 38 45 50 54 55 59 61 56 72 68 61 60 60 66 78 99 97 99 97 97 97 97 98 94 85 75 76 79 92 92 83 82 81 82 84 78 83
94 83 84 59 32 22 20 18 36 45 49 59 59 66 68 62 67 69 69 48 66 71 68 78 97 95 97 97 100 95 96 96 89 88 86 80 84 89 87 93 94 93 91 90 94
97 91 82 67 34 26 22 19 30 42 48 56 60 63 74 69 81 86 75 78 63 64 75 82 94 92 90 89 89 89 96 98 93 80 75 78 75 80 90 93 91 86 73 65 77
95 93 90 65 41 32 25 23 21 31 42 50 52 53 64 71 73 72 68 69 72 79 78 79 78 85 90 81 87 88 82 96 94 90 83 83 78 77 80 78 78 77 76 76 75
Wind_Speed
20 18 18 17 18 20 21 23 23 24 24 24 25 27 28 28 29 31 34 33 21 27 26 25 30 29 31 34 34 31 36 47 50 42 45 33 28 25 18 24 31 31 29 21 22
20 19 18 19 20 21 23 24 25 26 27 29 29 31 32 35 36 38 29 30 35 32 29 27 28 34 36 38 34 35 42 51 47 32 30 35 29 28 19 22 31 30 28 26 22
21 19 20 21 22 23 23 25 27 28 30 32 33 33 35 38 39 29 38 40 31 27 30 31 30 32 36 38 38 40 50 49 19 16 21 20 32 33 26 25 30 33 30 28 27
20 20 20 22 23 23 24 27 29 31 34 35 36 37 39 39 33 41 39 32 26 28 30 30 28 32 37 38 42 38 51 46 44 33 21 21 25 33 21 27 28 28 26 27 29
21 21 22 23 23 24 25 28 31 34 35 38 39 40 41 40 39 32 30 29 27 25 21 22 24 23 31 32 33 48 52 43 38 39 39 24 30 20 25 23 28 27 30 29 26
22 21 23 23 23 25 28 29 33 35 37 39 39 41 40 36 31 27 26 22 23 24 25 23 24 23 26 30 31 31 38 44 43 41 36 33 35 21 24 22 25 21 28 32 31
22 24 24 25 26 27 30 31 32 36 38 38 40 39 31 24 19 22 24 24 23 25 26 25 25 20 21 25 26 35 34 39 41 34 36 26 31 29 23 22 25 25 23 30 30
23 26 28 28 29 29 30 32 34 36 38 38 38 26 19 21 27 23 25 28 26 23 24 21 20 25 25 22 27 25 26 33 36 39 34 32 39 29 20 25 24 21 23 24 26
26 28 31 32 32 33 33 34 35 38 35 36 22 25 18 27 22 22 22 24 21 21 20 21 22 23 27 24 25 19 26 27 32 34 36 32 37 30 23 24 26 24 21 22 23
27 29 31 33 34 35 35 36 35 35 38 29 21 13 25 26 23 18 22 21 21 24 24 15 20 20 23 25 14 13 17 23 27 24 37 35 27 30 26 23 26 27 22 25 24
28 30 31 34 36 37 39 39 38 36 35 25 21 25 24 22 23 20 23 27 28 27 19 17 19 19 15 15 24 23 21 21 14 17 28 34 31 24 31 28 25 27 25 26 27
30 33 33 35 38 37 39 40 41 36 22 16 25 23 25 26 22 26 28 31 28 18 9 11 15 6 11 10 15 11 18 24 22 5 21 25 29 26 27 22 30 28 26 26 28
33 34 33 33 35 37 37 40 40 36 8 13 23 21 22 24 19 26 30 29 26 15 9 10 18 15 17 13 12 12 15 16 19 7 14 22 21 33 27 29 26 30 25 24 24
34 36 35 34 34 35 36 38 37 27 2 12 20 16 19 18 16 23 30 26 21 16 10 6 15 14 11 14 9 12 11 11 18 6 6 27 6 30 27 25 23 31 29 26 24
36 35 35 37 36 35 37 37 34 17 4 16 18 15 16 16 20 22 32 24 22 12 8 11 15 16 12 14 13 10 6 3 11 4 9 16 5 22 31 27 27 27 29 27 23
37 34 32 31 33 34 34 34 24 8 3 9 13 17 17 12 18 21 23 24 17 13 13 12 15 17 21 9 8 4 5 6 9 9 1 14 10 18 30 31 28 27 25 24 24
35 33 32 31 29 30 31 31 9 8 16 13 16 15 18 19 18 24 20 30 31 18 19 18 9 15 18 8 8 3 5 2 3 3 4 16 6 4 24 29 29 29 27 25 26
31 31 31 31 28 29 29 24 6 10 11 14 16 12 15 21 15 20 18 30 29 25 12 13 10 17 16 15 2 5 6 2 2 2 0 17 5 6 12 22 27 29 26 25 25
30 28 27 26 25 27 26 12 7 9 11 14 11 13 14 20 12 17 22 20 27 25 17 12 6 16 6 11 9 6 6 6 5 4 2 4 6 6 9 9 20 28 26 23 21
29 27 25 23 23 22 21 13 8 9 9 9 8 11 14 21 16 18 21 14 24 24 13 12 8 12 4 4 8 6 3 4 5 2 4 5 3 3 6 7 8 15 24 24 22
29 27 22 21 21 18 16 10 6 5 6 7 8 10 12 19 15 13 17 11 23 22 12 13 8 9 5 6 5 5 3 4 4 3 2 2 1 3 5 10 11 13 17 21 22
28 24 24 18 19 18 15 11 7 4 4 6 6 9 11 15 13 10 12 19 22 20 18 15 8 7 8 8 5 3 2 4 2 1 4 3 2 2 6 9 11 14 16 19 21
25 23 15 17 11 16 13 10 5 4 3 5 5 8 11 13 8 13 12 18 19 13 17 11 8 7 5 2 6 6 5 3 4 4 5 3 1 2 2 8 9 11 15 13 18
22 16 17 15 14 13 11 8 5 4 3 6 8 10 12 11 11 11 15 16 14 9 12 6 6 3 3 5 7 8 5 2 3 1 4 5 6 5 6 8 7 8 12 9 14
21 16 16 15 15 13 10 7 3 3 4 6 7 11 16 14 15 8 20 18 8 9 11 6 3 5 3 5 4 5 3 3 2 3 0 9 11 12 11 12 11 10 10 10 11
21 17 15 13 13 12 9 7 5 4 5 5 6 9 14 14 14 20 21 17 7 7 8 5 3 6 1 3 3 3 2 4 4 8 12 11 11 12 11 12 11 11 11 10 9
22 18 15 12 12 12 9 7 7 6 5 7 8 11 12 15 17 16 12 8 9 9 10 6 5 5 1 4 2 1 5 4 6 6 10 7 7 10 8 6 5 5 5 5 6
Wind_Direction
351 346 341 339 340 339 338 338 338 337 334 330 327 320 320 319 317 317 311 307 300 297 287 272 266 253 250 246 243 238 234 244 246 246 243 247 232 229 239 225 232 236 239 241 233
347 341 340 338 339 338 336 335 337 336 333 331 329 325 324 323 323 318 315 309 304 300 285 271 257 257 246 243 231 225 231 244 246 248 253 249 233 227 232 228 229 225 222 233 235
344 344 342 340 336 335 335 334 335 335 331 330 327 324 323 323 321 318 309 306 304 290 279 273 263 253 254 242 232 224 237 238 254 242 233 232 221 231 236 229 227 232 229 233 234
345 343 343 340 337 333 333 334 334 334 328 327 326 325 323 323 320 311 309 305 298 292 289 285 277 262 257 246 235 230 237 244 248 239 221 210 219 222 224 233 229 223 227 232 234
344 345 342 339 339 334 334 336 334 332 328 327 326 326 323 321 320 313 308 313 317 314 304 290 284 280 264 260 247 231 237 234 241 250 239 223 218 225 217 231 226 221 219 223 227
343 344 343 342 341 338 335 337 334 331 327 328 328 326 322 325 321 323 324 318 308 302 303 298 296 286 275 265 251 254 245 244 245 246 250 238 227 234 218 219 222 211 215 223 229
345 343 344 344 342 344 337 337 335 331 330 331 327 326 328 334 339 327 311 317 316 315 307 296 295 285 277 273 268 252 253 244 240 242 239 233 241 228 230 223 222 218 211 218 227
345 343 340 343 342 345 340 339 339 333 332 332 331 335 340 347 334 336 321 319 318 314 301 305 292 275 266 269 269 262 248 256 237 236 233 217 240 221 236 221 219 220 217 210 217
344 343 340 341 342 345 344 342 342 336 333 341 338 344 2 348 331 327 319 328 328 331 316 301 285 279 265 263 269 268 256 246 256 245 230 222 228 224 226 219 217 210 214 222 219
342 343 340 341 343 345 343 344 346 336 341 347 350 5 347 357 348 350 338 336 334 329 320 309 303 286 270 256 260 260 255 249 253 243 222 215 229 221 211 220 219 217 215 227 228
341 343 341 342 345 345 343 344 340 351 343 358 10 2 351 359 356 344 343 339 330 326 321 306 300 287 305 272 263 259 257 256 271 229 225 219 209 216 215 219 217 218 221 221 231
341 342 343 346 344 345 344 345 347 343 342 356 3 3 360 356 349 351 346 342 337 342 322 315 307 319 299 274 259 255 257 261 284 185 208 201 209 214 212 215 215 213 216 215 218
340 341 343 346 345 341 344 344 344 343 357 10 5 2 4 345 359 349 348 351 348 357 348 324 344 275 275 280 250 261 234 265 254 192 216 191 226 210 211 213 216 210 220 221 223
339 340 342 343 340 343 344 343 344 345 36 6 9 359 355 345 357 358 358 357 3 348 358 346 346 346 273 261 264 260 240 254 251 201 168 196 215 212 207 213 211 206 207 210 211
337 338 339 342 341 342 344 344 345 353 14 345 359 353 352 18 349 7 6 5 11 0 353 2 351 329 290 253 245 249 261 245 254 266 170 189 168 203 205 208 210 202 206 206 209
332 334 336 340 338 340 341 345 346 351 323 350 348 350 352 14 4 5 13 11 23 34 7 357 353 347 15 163 183 229 191 168 203 236 218 209 158 193 201 208 208 209 208 207 210
328 331 332 336 337 338 342 347 351 48 326 338 344 360 9 1 4 7 18 25 25 7 9 14 11 353 39 120 144 82 124 72 65 164 211 164 113 149 197 209 215 216 215 217 218
327 329 331 333 336 338 343 357 22 340 349 348 347 4 16 3 5 6 14 24 21 16 348 359 352 12 26 32 136 148 48 112 152 214 358 188 122 126 180 206 207 211 213 215 217
326 326 329 329 333 337 347 358 10 345 344 345 358 359 10 11 351 359 8 17 11 11 359 348 330 360 22 42 24 47 68 58 95 29 50 90 102 119 150 170 203 214 209 211 218
324 323 328 327 332 339 349 11 4 346 343 344 350 360 350 352 358 4 10 356 2 6 3 346 308 1 52 46 54 53 37 3 21 64 35 33 67 60 179 188 182 198 211 209 222
324 322 327 328 333 344 358 9 6 350 355 352 337 339 351 344 349 354 359 7 351 1 5 7 354 353 55 37 52 69 38 42 66 49 111 130 339 183 180 197 206 198 206 216 220
321 321 322 325 332 345 1 9 10 9 358 353 337 340 346 348 338 340 338 349 344 347 355 0 351 325 342 33 40 16 18 16 356 71 68 86 156 270 227 195 200 212 208 212 217
320 320 318 322 336 346 354 6 19 10 3 346 333 329 338 341 332 319 337 343 335 344 358 3 350 336 339 26 29 44 102 108 83 91 57 105 218 307 192 197 205 204 204 209 214
320 314 319 321 330 341 348 356 359 4 343 340 339 332 331 335 324 302 326 338 329 339 353 346 325 329 329 328 339 338 55 84 24 43 110 97 117 102 123 132 157 185 183 191 197
318 313 312 306 320 330 338 341 322 325 328 337 339 343 335 339 335 325 324 332 341 350 340 345 322 344 303 343 338 359 1 40 58 113 337 138 117 105 110 111 122 136 145 155 170
311 306 302 300 306 317 322 321 292 301 314 324 324 330 333 329 322 318 322 329 334 338 350 351 313 338 4 346 1 25 81 114 88 104 124 135 118 114 110 103 112 118 114 117 132
309 304 294 296 300 306 306 306 291 288 298 309 322 331 338 329 321 320 312 317 319 338 357 344 350 341 288 326 321 144 35 161 157 152 158 165 157 142 136 126 128 135 147 168 181